Weather History for Heber, UT

Change the Weather History Date:

Monday, November 11, 2013

  Actual Average (KPVU) Record (KPVU)
Temperature  
Mean Temperature 42 °F -  
Max Temperature 62 °F 46 °F 62 °F (1999)
Min Temperature 21 °F 29 °F 17 °F (2012)
Degree Days  
Heating Degree Days 24    
Moisture  
Dew Point 23 °F    
Average Humidity 62    
Maximum Humidity 93    
Minimum Humidity 20    
Precipitation  
Precipitation 0.00 in - - ()
Sea Level Pressure  
Sea Level Pressure 30.38 in    
Wind  
Wind Speed 0 mph (SE)    
Max Wind Speed 7 mph    
Max Gust Speed -    
Visibility 10 miles    
Events Thunderstorm    
Averages and records for this station are not official NWS values.
T = Trace of Precipitation, MM = Missing Value Source: NWS Daily Summary

Daily Weather History Graph

Daily Weather History Graph

Search for Another Location

Airport:

Trip Planner

Search our weather history database for the weather conditions in past years. The results will help you decide how hot, cold, wet, or windy it might be!

Date:

Astronomy

Nov. 11, 2013 Rise Set
Actual Time 7:07 AM MST 5:11 PM MST
Civil Twilight 6:38 AM MST 5:40 PM MST
Nautical Twilight 6:05 AM MST 6:13 PM MST
Astronomical Twilight 5:33 AM MST 6:45 PM MST
Moon 1:55 PM MST (11/11) 12:55 AM MST (11/11)
Length of Visible Light 11h 01m
Length of Day
10h 03m
Waxing Gibbous, 67% of the Moon is Illuminated
Nov 11
Waxing Gibbous
Nov 17
Full
Nov 25
Last Quarter
Dec 2
New
Dec 9
First Quarter

Hourly Weather History & Observations

Time (MST) Temp. Windchill Dew Point Humidity Pressure Visibility Wind Dir Wind Speed Gust Speed Precip Events Conditions
12:15 AM 28.4 °F - 21.2 °F 74% 30.33 in 10.0 mi Calm Calm - N/A   Clear
12:35 AM 26.6 °F - 21.2 °F 80% 30.33 in 10.0 mi Calm Calm - N/A   Clear
12:55 AM 26.6 °F - 21.2 °F 80% 30.33 in 10.0 mi Calm Calm - N/A   Clear
1:15 AM 28.4 °F - 21.2 °F 74% 30.33 in 10.0 mi Calm Calm - N/A   Clear
1:35 AM 26.6 °F - 21.2 °F 80% 30.33 in 10.0 mi Calm Calm - N/A   Clear
1:55 AM 24.8 °F - 21.2 °F 86% 30.33 in 10.0 mi Calm Calm - N/A   Clear
2:15 AM 26.6 °F - 23.0 °F 86% 30.33 in 10.0 mi Calm Calm - N/A   Clear
2:35 AM 26.6 °F - 21.2 °F 80% 30.33 in 10.0 mi Calm Calm - N/A   Clear
2:55 AM 23.0 °F - 19.4 °F 86% 30.33 in 10.0 mi Calm Calm - N/A   Clear
3:15 AM 23.0 °F - 19.4 °F 86% 30.34 in 10.0 mi Calm Calm - N/A   Clear
3:35 AM 24.8 °F - 19.4 °F 80% 30.34 in 10.0 mi Calm Calm - N/A Thunderstorm Thunderstorm
3:55 AM 23.0 °F - 19.4 °F 86% 30.34 in 10.0 mi Calm Calm - N/A   Clear
4:15 AM 23.0 °F - 19.4 °F 86% 30.35 in 10.0 mi Calm Calm - N/A   Clear
4:35 AM 24.8 °F - 19.4 °F 80% 30.35 in 10.0 mi Calm Calm - N/A   Clear
4:55 AM 23.0 °F - 19.4 °F 86% 30.36 in 10.0 mi Calm Calm - N/A Thunderstorm Clear
5:15 AM 21.2 °F - 19.4 °F 93% 30.36 in 10.0 mi Calm Calm - N/A   Clear
5:35 AM 21.2 °F - 17.6 °F 86% 30.36 in 10.0 mi Calm Calm - N/A   Clear
5:55 AM 21.2 °F - 19.4 °F 93% 30.37 in 10.0 mi Calm Calm - N/A   Clear
6:15 AM 21.2 °F - 17.6 °F 86% 30.38 in 10.0 mi Calm Calm - N/A   Clear
6:35 AM 21.2 °F - 19.4 °F 93% 30.38 in 10.0 mi Calm Calm - N/A Thunderstorm Clear
6:55 AM 21.2 °F - 19.4 °F 93% 30.39 in 10.0 mi Calm Calm - N/A   Clear
7:15 AM 23.0 °F - 19.4 °F 86% 30.39 in 10.0 mi Calm Calm - N/A   Clear
7:35 AM 21.2 °F - 19.4 °F 93% 30.40 in 10.0 mi Calm Calm - N/A Thunderstorm Thunderstorm
7:55 AM 26.6 °F - 21.2 °F 80% 30.40 in 10.0 mi Calm Calm - N/A Thunderstorm Thunderstorm
8:15 AM 30.2 °F - 23.0 °F 75% 30.41 in 10.0 mi Calm Calm - N/A Thunderstorm Thunderstorm
8:35 AM 30.2 °F - 24.8 °F 80% 30.42 in 10.0 mi Calm Calm - N/A Thunderstorm Thunderstorm
8:55 AM 32.0 °F - 26.6 °F 80% 30.42 in 10.0 mi Calm Calm - N/A Thunderstorm Thunderstorm
9:15 AM 33.8 °F - 26.6 °F 75% 30.41 in 10.0 mi Calm Calm - N/A Thunderstorm Clear
9:35 AM 33.8 °F - 26.6 °F 75% 30.41 in 10.0 mi Calm Calm - N/A   Clear
9:55 AM 37.4 °F - 26.6 °F 65% 30.41 in 10.0 mi Calm Calm - N/A   Clear
10:15 AM 39.2 °F - 24.8 °F 56% 30.41 in 10.0 mi Calm Calm - N/A   Clear
10:35 AM 41.0 °F - 26.6 °F 57% 30.41 in 10.0 mi Calm Calm - N/A   Clear
10:55 AM 42.8 °F - 24.8 °F 49% 30.41 in 10.0 mi Calm Calm - N/A   Clear
11:15 AM 46.4 °F - 23.0 °F 40% 30.40 in 10.0 mi Calm Calm - N/A   Clear
11:35 AM 48.2 °F - 23.0 °F 37% 30.40 in 10.0 mi Calm Calm - N/A   Clear
11:55 AM 50.0 °F - 24.8 °F 37% 30.38 in 10.0 mi Calm Calm - N/A   Clear
12:15 PM 51.8 °F - 24.8 °F 35% 30.38 in 10.0 mi Calm Calm - N/A   Clear
12:35 PM 53.6 °F - 24.8 °F 33% 30.36 in 10.0 mi Calm Calm - N/A   Clear
12:55 PM 55.4 °F - 26.6 °F 33% 30.35 in 10.0 mi Calm Calm - N/A   Clear
1:15 PM 55.4 °F - 26.6 °F 33% 30.34 in 10.0 mi Calm Calm - N/A   Clear
1:35 PM 59.0 °F - 26.6 °F 29% 30.34 in 10.0 mi Calm Calm - N/A   Clear
1:55 PM 59.0 °F - 21.2 °F 23% 30.34 in 10.0 mi Calm Calm - N/A   Clear
2:15 PM 60.8 °F - 21.2 °F 22% 30.34 in 10.0 mi Calm Calm - N/A   Clear
2:35 PM 62.6 °F - 21.2 °F 20% 30.33 in 10.0 mi Calm Calm - N/A   Clear
2:55 PM 62.6 °F - 21.2 °F 20% 30.33 in 10.0 mi Calm Calm - N/A   Clear
3:15 PM 62.6 °F - 21.2 °F 20% 30.33 in 10.0 mi Calm Calm - N/A   Clear
3:35 PM 62.6 °F - 23.0 °F 22% 30.33 in 10.0 mi Calm Calm - N/A   Clear
3:55 PM 62.6 °F - 23.0 °F 22% 30.34 in 10.0 mi Calm Calm - N/A   Clear
4:15 PM 60.8 °F - 23.0 °F 23% 30.35 in 10.0 mi Calm Calm - N/A   Clear
4:35 PM 59.0 °F - 24.8 °F 27% 30.35 in 10.0 mi Calm Calm - N/A   Clear
4:55 PM 55.4 °F - 23.0 °F 29% 30.35 in 10.0 mi SW 4.6 mph - N/A   Clear
5:15 PM 46.4 °F 44.3 °F 26.6 °F 46% 30.36 in 10.0 mi NE 4.6 mph - N/A   Clear
5:35 PM 42.8 °F 38.6 °F 26.6 °F 53% 30.36 in 10.0 mi ESE 6.9 mph - N/A   Clear
5:55 PM 42.8 °F 38.6 °F 24.8 °F 49% 30.37 in 10.0 mi East 6.9 mph - N/A   Clear
6:15 PM 37.4 °F 32.8 °F 26.6 °F 65% 30.38 in 10.0 mi ESE 5.8 mph - N/A   Clear
6:35 PM 37.4 °F 34.9 °F 24.8 °F 60% 30.39 in 10.0 mi SE 3.5 mph - N/A   Clear
6:55 PM 37.4 °F 34.9 °F 26.6 °F 65% 30.39 in 10.0 mi SSE 3.5 mph - N/A   Clear
7:15 PM 41.0 °F 39.0 °F 24.8 °F 53% 30.40 in 10.0 mi SSE 3.5 mph - N/A   Clear
7:35 PM 35.6 °F 30.7 °F 24.8 °F 65% 30.41 in 10.0 mi ESE 5.8 mph - N/A   Clear
7:55 PM 33.8 °F 29.6 °F 24.8 °F 70% 30.41 in 10.0 mi SE 4.6 mph - N/A   Clear
8:15 PM 35.6 °F 32.8 °F 23.0 °F 60% 30.42 in 10.0 mi SE 3.5 mph - N/A   Clear
8:35 PM 35.6 °F - 23.0 °F 60% 30.42 in 10.0 mi Calm Calm - N/A   Clear
8:55 PM 35.6 °F - 23.0 °F 60% 30.43 in 10.0 mi Calm Calm - N/A   Clear
9:15 PM 32.0 °F - 23.0 °F 69% 30.44 in 10.0 mi Calm Calm - N/A   Clear
9:35 PM 32.0 °F - 23.0 °F 69% 30.45 in 10.0 mi Calm Calm - N/A   Clear
9:55 PM 32.0 °F - 23.0 °F 69% 30.45 in 10.0 mi Calm Calm - N/A   Clear
10:15 PM 30.2 °F - 23.0 °F 75% 30.45 in 10.0 mi Calm Calm - N/A   Clear
10:35 PM 32.0 °F 28.7 °F 23.0 °F 69% 30.46 in 10.0 mi SE 3.5 mph - N/A   Clear
10:55 PM 32.0 °F - 23.0 °F 69% 30.47 in 10.0 mi Calm Calm - N/A   Clear
11:15 PM 32.0 °F - 23.0 °F 69% 30.47 in 10.0 mi Calm Calm - N/A   Clear
11:35 PM 32.0 °F - 21.2 °F 64% 30.48 in 10.0 mi Calm Calm - N/A   Clear
11:55 PM 30.2 °F 26.7 °F 23.0 °F 75% 30.48 in 10.0 mi SSE 3.5 mph - N/A   Clear